Regional Weather Roundup
Issued by NWS

Home | Current Version | Previous Version | Text Only | Print | Product List | Glossary Off
Versions: 1 2 3 4 5 6 7 8 9 10 11 12 13 14 15 16 17 18 19 20 21 22 23 24 25 26 27 28 29 30 31 32 33 34 35 36 37 38 39 40 41 42 43 44 45 46 47 48 49 50

530
ASUS43 KLSX 222359
RWRMO

WEATHER SUMMARY FOR MISSOURI
NATIONAL WEATHER SERVICE SPRINGFIELD MO
700 PM CDT MON MAY 22 2017

NOTE: "FAIR" INDICATES FEW OR NO CLOUDS BELOW 12,000 FEET WITH NO
       SIGNIFICANT WEATHER AND/OR OBSTRUCTIONS TO VISIBILITY.
       CURRENT SKY AND/OR WEATHER CONDITIONS ARE NOT AVAILABLE FOR
       CHILLICOTHE AND FARMINGTON.

MOZ001>031-035>038-043-044-053-054-230100-
...NORTHERN AND WESTERN MISSOURI...

CITY           SKY/WX    TMP DP  RH WIND       PRES   REMARKS
KANSAS CTY INT LGT RAIN  59  57  93 SE6       29.93F
6HR MIN TEMP:  58; 6HR MAX TEMP:  68; 6HR PCP:  0.07;

KANSAS C DTWN  CLOUDY    62  57  83 E5        29.92F
6HR MIN TEMP:  60; 6HR MAX TEMP:  74; 6HR PCP:  0.16;

LEE`S SUMMIT   CLOUDY    60  57  89 NE7       29.95F
6HR MIN TEMP:  60; 6HR MAX TEMP:  72; 6HR PCP:  0.01;

ST JOSEPH      CLOUDY    60  57  89 S13       29.91F
6HR MIN TEMP:  59; 6HR MAX TEMP:  62; 6HR PCP:  0.15;

CHILLICOTHE      N/A     59  57  93 CALM      29.95F
6HR MIN TEMP:  59; 6HR MAX TEMP:  65; 6HR PCP:  0.16;

KIRKSVILLE     LGT RAIN  59  56  89 SW5       29.97S
6HR MIN TEMP:  59; 6HR MAX TEMP:  67; 6HR PCP:  0.28;


$$
MOZ066>068-077>081-088>096-101>105-230100-
...SOUTHWEST MISSOURI...

CITY           SKY/WX    TMP DP  RH WIND       PRES   REMARKS
SPRINGFIELD    PTSUNNY   70  46  42 S8        29.94F
6HR MIN TEMP:  70; 6HR MAX TEMP:  74;

JOPLIN         CLOUDY    70  55  59 S6        29.94F
6HR MIN TEMP:  70; 6HR MAX TEMP:  78;

BRANSON        PTSUNNY   68  50  52 CALM      29.96F

$$
MOZ032>034-039>042-045>050-055>058-069>072-230100-
...CENTRAL MISSOURI...

CITY           SKY/WX    TMP DP  RH WIND       PRES   REMARKS
COLUMBIA       CLOUDY    70  56  61 SW3       29.95S
6HR MIN TEMP:  70; 6HR MAX TEMP:  74; 6HR PCP: TRACE;

JEFFERSON CITY PTSUNNY   75  54  47 CALM      29.93F
6HR MIN TEMP:  74; 6HR MAX TEMP:  76;

ROLLA          CLOUDY    67  59  75 S3        29.95F
6HR MIN TEMP:  67; 6HR MAX TEMP:  73;

SEDALIA        CLOUDY    70  59  68 W3        29.95F
6HR MIN TEMP:  68; 6HR MAX TEMP:  73; 6HR PCP: TRACE;

WARRENSBURG    LGT RAIN  59  54  82 N8        29.95F
OSAGE BEACH    CLOUDY    71  56  58 S3        29.95F

$$
MOZ051-052-059>065-230100-
...EAST CENTRAL MISSOURI...

CITY           SKY/WX    TMP DP  RH WIND       PRES   REMARKS
ST LOUIS INTL  CLOUDY    76  47  35 CALM      29.94F
6HR MIN TEMP:  75; 6HR MAX TEMP:  79;

SPIRIT OF STL  CLOUDY    71  57  61 CALM      29.93F
6HR MIN TEMP:  71; 6HR MAX TEMP:  77;

ST CHARLES     CLOUDY    73  50  44 NW3       29.93F
6HR MIN TEMP:  73; 6HR MAX TEMP:  77;


$$
MOZ072>076-082>087-097>100-106>115-230100-
...SOUTH CENTRAL AND SOUTHEAST MISSOURI...

CITY           SKY/WX    TMP DP  RH WIND       PRES   REMARKS
CAPE GIRARDEAU CLOUDY    69  49  48 E6        29.96F
6HR MIN TEMP:  69; 6HR MAX TEMP:  75;

FARMINGTON     MOSUNNY   69  52  54 SE5       29.97F
6HR MIN TEMP:  69; 6HR MAX TEMP:  74;

POPLAR BLUFF   CLOUDY    75  48  38 W5        29.95F
6HR MIN TEMP:  71; 6HR MAX TEMP:  77;

WEST PLAINS    MOSUNNY   70  50  49 SE3       29.97F
6HR MIN TEMP:  69; 6HR MAX TEMP:  73;


$$




USA.gov is the U.S. government's official web portal to all federal, state and local government web resources and services.